NWWL

Details ICAO NWWL (LIF)
Name Wanaham_(Lifou)
Region New Caledonia
Timezone Pacific/Noumea (UTC+11.0)
Plans Departing 2
Arriving 6
Stats Elevation 92 ft / 28 m (AMSL)
Location -20.774911° 167.239647°
Runways 1
Magnetic Variation 12.170° E
Sunrise 2018-05-21 19:17:30 UTC / 2018-05-22 06:17:30 Local
Sunset 2018-05-22 06:20:42 UTC / 2018-05-22 17:20:42 Local
Advertisement - Login to hide

Runways

ID Width Length Bearing (true) Bearing (mag) Surface Threshold Offset Overrun Length
12 98 ft / 30 m 3,612 ft / 1,101 m 135.12° 122.95° Asphalt 0 ft / 0 m 164 ft / 50 m
30 98 ft / 30 m 3,612 ft / 1,101 m 315.12° 302.95° Asphalt 0 ft / 0 m 164 ft / 50 m

Map

Weather


0- 5 10 15 20 25 30 35+ Temperature / ° C

Clouds and Precipitation
Forecast for 2018-05-22 00:00 UTC. Updated 2 hours ago

Ground ~20,000 ft ~40,000 ft Winds

METAR

Not found

TAF

TAF NWWL 211700Z 2118/2218 14006KT 9999 FEW030 TEMPO 2121/2206 SHRA BKN014

Frequencies

Tower 118.50 MHz LIFOU TWR
Approach 125.10 MHz TONTOUTA APP
Warning: Do not use this data for real-world aviation or navigation. No guarantee of current accuracy is given.